Location: Peterborough
(44.3091°N, 78.3197°W)
Time: 23:54:09
(UTC-04:00)

SR - Pass Details

Date: 24 March 2023
Orbit: 581 x 867 km, 66.7° (Epoch: 02 June)

Event Time Altitude Azimuth Distance (km) Brightness Sun altitude
Rises 11:47:52 0° 333° (NNW) 2,810 ? 42.6°
Reaches altitude 10° 11:50:10 10° 340° (NNW) 1,916 ? 42.8°
Maximum altitude 11:54:16 43° 53° (NE) 847 ? 43.2°
Drops below altitude 10° 11:58:31 10° 125° (SE) 1,992 ? 43.6°
Sets 12:00:56 0° 132° (SE) 2,936 ? 43.8°
